#datetime,building,power
2023-10-31T00:00:00,pkn,2.40
2023-10-31T00:02:00,pkn,1.20
2023-10-31T00:04:00,pkn,1.20
2023-10-31T00:05:00,pkn,1.20
2023-10-31T00:07:00,pkn,1.20
2023-10-31T00:09:00,pkn,2.40
2023-10-31T00:11:00,pkn,2.40
2023-10-31T00:14:00,pkn,2.40
2023-10-31T00:16:00,pkn,1.20
2023-10-31T00:18:00,pkn,1.20
2023-10-31T00:19:00,pkn,1.20
2023-10-31T00:21:00,pkn,1.20
2023-10-31T00:22:00,pkn,1.20
2023-10-31T00:24:00,pkn,9.60
2023-10-31T00:25:00,pkn,3.60
2023-10-31T00:27:00,pkn,10.80
2023-10-31T00:29:00,pkn,9.60
2023-10-31T00:30:00,pkn,1.20
2023-10-31T00:32:00,pkn,1.20
2023-10-31T00:34:00,pkn,1.20
2023-10-31T00:36:00,pkn,1.20
2023-10-31T00:38:00,pkn,2.40
2023-10-31T00:40:00,pkn,1.20
2023-10-31T00:41:00,pkn,1.20
2023-10-31T00:42:00,pkn,2.40
2023-10-31T00:43:00,pkn,1.20
2023-10-31T00:45:00,pkn,1.20
2023-10-31T00:47:00,pkn,2.40
2023-10-31T00:50:00,pkn,2.40
2023-10-31T00:52:00,pkn,2.40
2023-10-31T00:54:00,pkn,1.20
2023-10-31T00:56:00,pkn,2.40
2023-10-31T00:58:00,pkn,1.20
2023-10-31T00:59:00,pkn,1.20
2023-10-31T01:01:00,pkn,1.20
2023-10-31T01:02:00,pkn,1.20
2023-10-31T01:04:00,pkn,1.20
2023-10-31T01:05:00,pkn,1.20
2023-10-31T01:06:00,pkn,1.20
2023-10-31T01:08:00,pkn,2.40
2023-10-31T01:10:00,pkn,1.20
2023-10-31T01:11:00,pkn,1.20
2023-10-31T01:13:00,pkn,1.20
2023-10-31T01:15:00,pkn,1.20
2023-10-31T01:17:00,pkn,2.40
2023-10-31T01:20:00,pkn,1.20
2023-10-31T01:21:00,pkn,1.20
2023-10-31T01:23:00,pkn,1.20
2023-10-31T01:25:00,pkn,3.60
2023-10-31T01:26:00,pkn,4.80
2023-10-31T01:28:00,pkn,9.59
2023-10-31T01:29:00,pkn,1.20
2023-10-31T01:30:00,pkn,7.20
2023-10-31T01:31:00,pkn,6.00
2023-10-31T01:32:00,pkn,4.80
2023-10-31T01:34:00,pkn,4.80
2023-10-31T01:35:00,pkn,1.20
2023-10-31T01:37:00,pkn,1.20
2023-10-31T01:38:00,pkn,1.20
2023-10-31T01:40:00,pkn,1.20
2023-10-31T01:41:00,pkn,1.20
2023-10-31T01:43:00,pkn,1.20
2023-10-31T01:45:00,pkn,1.20
2023-10-31T01:47:00,pkn,2.40
2023-10-31T01:50:00,pkn,2.40
2023-10-31T01:52:00,pkn,1.20
2023-10-31T01:54:00,pkn,1.20
2023-10-31T01:56:00,pkn,1.20
2023-10-31T01:58:00,pkn,2.40
2023-10-31T02:00:00,pkn,1.20
2023-10-31T02:02:00,pkn,1.20
2023-10-31T02:04:00,pkn,2.40
2023-10-31T02:07:00,pkn,2.40
2023-10-31T02:09:00,pkn,1.20
2023-10-31T02:11:00,pkn,1.20
2023-10-31T02:13:00,pkn,2.40
2023-10-31T02:15:00,pkn,1.20
2023-10-31T02:16:00,pkn,1.20
2023-10-31T02:17:00,pkn,1.20
2023-10-31T02:20:00,pkn,2.40
2023-10-31T02:21:00,pkn,1.20
2023-10-31T02:23:00,pkn,1.20
2023-10-31T02:24:00,pkn,1.20
2023-10-31T02:26:00,pkn,1.20
2023-10-31T02:27:00,pkn,1.20
2023-10-31T02:29:00,pkn,1.20
2023-10-31T02:30:00,pkn,1.20
2023-10-31T02:32:00,pkn,1.20
2023-10-31T02:34:00,pkn,1.20
2023-10-31T02:36:00,pkn,1.20
2023-10-31T02:38:00,pkn,1.20
2023-10-31T02:39:00,pkn,1.20
2023-10-31T02:41:00,pkn,1.20
2023-10-31T02:42:00,pkn,1.20
2023-10-31T02:45:00,pkn,2.40
2023-10-31T02:47:00,pkn,2.40
2023-10-31T02:49:00,pkn,1.20
2023-10-31T02:50:00,pkn,1.20
2023-10-31T02:52:00,pkn,1.20
2023-10-31T02:54:00,pkn,2.40
2023-10-31T02:56:00,pkn,8.40
2023-10-31T02:58:00,pkn,9.60
2023-10-31T02:59:00,pkn,4.80
2023-10-31T03:01:00,pkn,10.80
2023-10-31T03:03:00,pkn,2.40
2023-10-31T03:05:00,pkn,1.20
2023-10-31T03:07:00,pkn,1.20
2023-10-31T03:09:00,pkn,2.40
2023-10-31T03:10:00,pkn,1.20
2023-10-31T03:12:00,pkn,1.20
2023-10-31T03:14:00,pkn,1.20
2023-10-31T03:16:00,pkn,1.20
2023-10-31T03:17:00,pkn,1.20
2023-10-31T03:20:00,pkn,2.40
2023-10-31T03:23:00,pkn,1.20
2023-10-31T03:25:00,pkn,2.40
2023-10-31T03:27:00,pkn,1.20
2023-10-31T03:29:00,pkn,1.20
2023-10-31T03:30:00,pkn,1.20
2023-10-31T03:32:00,pkn,1.20
2023-10-31T03:33:00,pkn,1.20
2023-10-31T03:35:00,pkn,1.20
2023-10-31T03:36:00,pkn,1.20
2023-10-31T03:38:00,pkn,1.20
2023-10-31T03:40:00,pkn,1.20
2023-10-31T03:42:00,pkn,2.40
2023-10-31T03:44:00,pkn,1.20
2023-10-31T03:46:00,pkn,2.40
2023-10-31T03:49:00,pkn,1.20
2023-10-31T03:51:00,pkn,2.40
2023-10-31T03:53:00,pkn,1.20
2023-10-31T03:54:00,pkn,1.20
2023-10-31T03:56:00,pkn,1.20
2023-10-31T03:58:00,pkn,1.20
2023-10-31T03:59:00,pkn,1.20
2023-10-31T04:01:00,pkn,1.20
2023-10-31T04:03:00,pkn,2.40
2023-10-31T04:05:00,pkn,1.20
2023-10-31T04:07:00,pkn,1.20
2023-10-31T04:08:00,pkn,1.20
2023-10-31T04:11:00,pkn,2.40
2023-10-31T04:14:00,pkn,1.20
2023-10-31T04:16:00,pkn,2.40
2023-10-31T04:18:00,pkn,1.20
2023-10-31T04:20:00,pkn,1.20
2023-10-31T04:21:00,pkn,1.20
2023-10-31T04:24:00,pkn,2.40
2023-10-31T04:26:00,pkn,2.40
2023-10-31T04:28:00,pkn,1.20
2023-10-31T04:30:00,pkn,1.20
2023-10-31T04:32:00,pkn,1.20
2023-10-31T04:34:00,pkn,2.40
2023-10-31T04:36:00,pkn,1.20
2023-10-31T04:39:00,pkn,2.40
2023-10-31T04:41:00,pkn,1.20
2023-10-31T04:43:00,pkn,6.00
2023-10-31T04:45:00,pkn,10.80
2023-10-31T04:47:00,pkn,9.60
2023-10-31T04:48:00,pkn,4.80
2023-10-31T04:49:00,pkn,1.20
2023-10-31T04:51:00,pkn,2.40
2023-10-31T04:53:00,pkn,1.20
2023-10-31T04:55:00,pkn,2.40
2023-10-31T04:57:00,pkn,1.20
2023-10-31T04:59:00,pkn,2.40
2023-10-31T05:01:00,pkn,1.20
2023-10-31T05:02:00,pkn,1.20
2023-10-31T05:04:00,pkn,1.20
2023-10-31T05:06:00,pkn,2.40
2023-10-31T05:07:00,pkn,1.20
2023-10-31T05:09:00,pkn,1.20
2023-10-31T05:11:00,pkn,2.40
2023-10-31T05:14:00,pkn,2.40
2023-10-31T05:16:00,pkn,1.20
2023-10-31T05:18:00,pkn,2.40
2023-10-31T05:20:00,pkn,1.20
2023-10-31T05:22:00,pkn,1.20
2023-10-31T05:23:00,pkn,1.20
2023-10-31T05:25:00,pkn,1.20
2023-10-31T05:26:00,pkn,1.20
2023-10-31T05:28:00,pkn,1.20
2023-10-31T05:30:00,pkn,1.20
2023-10-31T05:32:00,pkn,2.40
2023-10-31T05:35:00,pkn,1.20
2023-10-31T05:37:00,pkn,2.40
2023-10-31T05:40:00,pkn,2.40
2023-10-31T05:42:00,pkn,1.20
2023-10-31T05:44:00,pkn,1.20
2023-10-31T05:45:00,pkn,1.20
2023-10-31T05:47:00,pkn,1.20
2023-10-31T05:49:00,pkn,1.20
2023-10-31T05:51:00,pkn,1.20
2023-10-31T05:52:00,pkn,1.20
2023-10-31T05:53:00,pkn,1.20
2023-10-31T05:55:00,pkn,1.20
2023-10-31T05:56:00,pkn,1.20
2023-10-31T05:58:00,pkn,1.20
2023-10-31T05:59:00,pkn,1.20
2023-10-31T06:02:00,pkn,2.40
2023-10-31T06:04:00,pkn,1.20
2023-10-31T06:05:00,pkn,1.20
2023-10-31T06:08:00,pkn,2.40
2023-10-31T06:10:00,pkn,1.20
2023-10-31T06:12:00,pkn,1.20
2023-10-31T06:13:00,pkn,1.20
2023-10-31T06:15:00,pkn,1.20
2023-10-31T06:16:00,pkn,1.20
2023-10-31T06:18:00,pkn,1.20
2023-10-31T06:20:00,pkn,1.20
2023-10-31T06:21:00,pkn,1.20
2023-10-31T06:23:00,pkn,1.20
2023-10-31T06:24:00,pkn,1.20
2023-10-31T06:26:00,pkn,1.20
2023-10-31T06:28:00,pkn,1.20
2023-10-31T06:30:00,pkn,1.20
2023-10-31T06:32:00,pkn,2.40
2023-10-31T06:34:00,pkn,4.80
2023-10-31T06:35:00,pkn,4.80
2023-10-31T06:37:00,pkn,9.60
2023-10-31T06:39:00,pkn,10.80
2023-10-31T06:40:00,pkn,4.80
2023-10-31T06:42:00,pkn,7.20
2023-10-31T06:44:00,pkn,2.40
2023-10-31T06:46:00,pkn,1.20
2023-10-31T06:48:00,pkn,1.20
2023-10-31T06:50:00,pkn,2.40
2023-10-31T06:51:00,pkn,1.20
2023-10-31T06:53:00,pkn,1.20
2023-10-31T06:55:00,pkn,1.20
2023-10-31T06:57:00,pkn,2.40
2023-10-31T06:59:00,pkn,2.40
2023-10-31T07:01:00,pkn,1.20
2023-10-31T07:04:00,pkn,2.40
2023-10-31T07:07:00,pkn,2.40
2023-10-31T07:08:00,pkn,1.20
2023-10-31T07:10:00,pkn,1.20
2023-10-31T07:11:00,pkn,1.20
2023-10-31T07:13:00,pkn,1.20
2023-10-31T07:16:00,pkn,2.40
2023-10-31T07:18:00,pkn,1.20
2023-10-31T07:20:00,pkn,1.20
2023-10-31T07:22:00,pkn,2.40
2023-10-31T07:24:00,pkn,1.20
2023-10-31T07:26:00,pkn,1.20
2023-10-31T07:27:00,pkn,1.20
2023-10-31T07:29:00,pkn,1.20
2023-10-31T07:31:00,pkn,1.20
2023-10-31T07:32:00,pkn,1.20
2023-10-31T07:34:00,pkn,1.20
2023-10-31T07:35:00,pkn,1.20
2023-10-31T07:37:00,pkn,1.20
2023-10-31T07:39:00,pkn,2.40
2023-10-31T07:42:00,pkn,1.20
2023-10-31T07:43:00,pkn,1.20
2023-10-31T07:45:00,pkn,1.20
2023-10-31T07:47:00,pkn,3.60
2023-10-31T07:48:00,pkn,4.80
2023-10-31T07:49:00,pkn,1.20
2023-10-31T07:50:00,pkn,8.40
2023-10-31T07:51:00,pkn,1.20
2023-10-31T07:52:00,pkn,7.20
2023-10-31T07:53:00,pkn,7.20
2023-10-31T07:54:00,pkn,4.80
2023-10-31T07:55:00,pkn,3.60
2023-10-31T07:57:00,pkn,8.40
2023-10-31T07:59:00,pkn,1.20
2023-10-31T08:01:00,pkn,1.20
2023-10-31T08:03:00,pkn,2.40
2023-10-31T08:05:00,pkn,1.20
2023-10-31T08:06:00,pkn,1.20
2023-10-31T08:08:00,pkn,1.20
2023-10-31T08:10:00,pkn,6.00
2023-10-31T08:11:00,pkn,3.60
2023-10-31T08:13:00,pkn,9.60
2023-10-31T08:14:00,pkn,4.80
2023-10-31T08:16:00,pkn,9.60
2023-10-31T08:17:00,pkn,4.80
2023-10-31T08:19:00,pkn,9.60
2023-10-31T08:20:00,pkn,5.99
2023-10-31T08:22:00,pkn,8.40
2023-10-31T08:24:00,pkn,4.80
2023-10-31T08:26:00,pkn,2.40
2023-10-31T08:28:00,pkn,1.20
2023-10-31T08:30:00,pkn,2.40
2023-10-31T08:32:00,pkn,1.20
2023-10-31T08:33:00,pkn,2.40
2023-10-31T08:35:00,pkn,9.60
2023-10-31T08:36:00,pkn,3.60
2023-10-31T08:37:00,pkn,6.00
2023-10-31T08:39:00,pkn,8.40
2023-10-31T08:40:00,pkn,6.00
2023-10-31T08:42:00,pkn,9.60
2023-10-31T08:44:00,pkn,8.40
2023-10-31T08:46:00,pkn,10.80
2023-10-31T08:48:00,pkn,9.60
2023-10-31T08:50:00,pkn,1.20
2023-10-31T08:52:00,pkn,2.40
2023-10-31T08:53:00,pkn,1.20
2023-10-31T08:55:00,pkn,1.20
2023-10-31T08:56:00,pkn,1.20
2023-10-31T08:59:00,pkn,2.40
2023-10-31T09:01:00,pkn,1.20
2023-10-31T09:03:00,pkn,7.20
2023-10-31T09:04:00,pkn,1.20
2023-10-31T09:05:00,pkn,8.40
2023-10-31T09:06:00,pkn,6.00
2023-10-31T09:08:00,pkn,8.40
2023-10-31T09:10:00,pkn,9.59
2023-10-31T09:11:00,pkn,6.00
2023-10-31T09:13:00,pkn,9.60
2023-10-31T09:15:00,pkn,8.40
2023-10-31T09:17:00,pkn,9.60
2023-10-31T09:19:00,pkn,1.20
2023-10-31T09:20:00,pkn,1.20
2023-10-31T09:22:00,pkn,2.40
2023-10-31T09:23:00,pkn,1.20
2023-10-31T09:25:00,pkn,1.20
2023-10-31T09:27:00,pkn,2.40
2023-10-31T09:29:00,pkn,1.20
2023-10-31T09:31:00,pkn,3.60
2023-10-31T09:33:00,pkn,9.60
2023-10-31T09:35:00,pkn,10.80
2023-10-31T09:37:00,pkn,9.60
2023-10-31T09:39:00,pkn,10.80
2023-10-31T09:40:00,pkn,4.80
2023-10-31T09:42:00,pkn,9.60
2023-10-31T09:44:00,pkn,10.80
2023-10-31T09:46:00,pkn,10.80
2023-10-31T09:48:00,pkn,3.60
2023-10-31T09:50:00,pkn,3.60
2023-10-31T09:52:00,pkn,2.40
2023-10-31T09:54:00,pkn,3.60
2023-10-31T09:56:00,pkn,2.40
2023-10-31T09:58:00,pkn,3.60
2023-10-31T10:00:00,pkn,2.40
2023-10-31T10:02:00,pkn,8.40
2023-10-31T10:04:00,pkn,10.80
2023-10-31T10:05:00,pkn,6.00
2023-10-31T10:06:00,pkn,4.80
2023-10-31T10:08:00,pkn,10.80
2023-10-31T10:10:00,pkn,9.60
2023-10-31T10:11:00,pkn,4.80
2023-10-31T10:13:00,pkn,2.40
2023-10-31T10:15:00,pkn,2.40
2023-10-31T10:17:00,pkn,1.20
2023-10-31T10:18:00,pkn,1.20
2023-10-31T10:20:00,pkn,1.20
2023-10-31T10:22:00,pkn,2.40
2023-10-31T10:24:00,pkn,2.40
2023-10-31T10:26:00,pkn,2.40
2023-10-31T10:27:00,pkn,6.00
2023-10-31T10:29:00,pkn,10.80
2023-10-31T10:31:00,pkn,10.80
2023-10-31T10:33:00,pkn,9.60
2023-10-31T10:35:00,pkn,10.80
2023-10-31T10:37:00,pkn,6.00
2023-10-31T10:38:00,pkn,1.20
2023-10-31T10:40:00,pkn,2.40
2023-10-31T10:41:00,pkn,1.20
2023-10-31T10:43:00,pkn,1.20
2023-10-31T10:45:00,pkn,2.40
2023-10-31T10:47:00,pkn,2.40
2023-10-31T10:48:00,pkn,1.20
2023-10-31T10:50:00,pkn,1.20
2023-10-31T10:51:00,pkn,1.20
2023-10-31T10:53:00,pkn,2.40
2023-10-31T10:54:00,pkn,1.20
2023-10-31T10:56:00,pkn,10.80
2023-10-31T10:58:00,pkn,13.20
2023-10-31T11:00:00,pkn,12.00
2023-10-31T11:02:00,pkn,8.40
2023-10-31T11:03:00,pkn,6.00
2023-10-31T11:05:00,pkn,9.60
2023-10-31T11:07:00,pkn,4.80
2023-10-31T11:08:00,pkn,2.40
2023-10-31T11:09:00,pkn,1.20
2023-10-31T11:11:00,pkn,3.60
2023-10-31T11:13:00,pkn,2.40
2023-10-31T11:16:00,pkn,2.40
2023-10-31T11:18:00,pkn,1.20
2023-10-31T11:20:00,pkn,2.40
2023-10-31T11:22:00,pkn,1.20
2023-10-31T11:23:00,pkn,1.20
2023-10-31T11:25:00,pkn,1.20
2023-10-31T11:27:00,pkn,1.20
2023-10-31T11:28:00,pkn,1.20
2023-10-31T11:30:00,pkn,4.80
2023-10-31T11:31:00,pkn,4.80
2023-10-31T11:32:00,pkn,1.20
2023-10-31T11:33:00,pkn,9.60
2023-10-31T11:34:00,pkn,4.80
2023-10-31T11:36:00,pkn,9.60
2023-10-31T11:37:00,pkn,1.20
2023-10-31T11:38:00,pkn,9.60
2023-10-31T11:40:00,pkn,7.20
2023-10-31T11:43:00,pkn,2.40
2023-10-31T11:44:00,pkn,1.20
2023-10-31T11:46:00,pkn,1.20
2023-10-31T11:47:00,pkn,1.20
2023-10-31T11:49:00,pkn,2.40
2023-10-31T11:50:00,pkn,1.20
2023-10-31T11:52:00,pkn,1.20
2023-10-31T11:53:00,pkn,1.20
2023-10-31T11:55:00,pkn,2.40
2023-10-31T11:57:00,pkn,1.20
2023-10-31T11:58:00,pkn,1.20
2023-10-31T12:00:00,pkn,1.20
2023-10-31T12:02:00,pkn,2.40
2023-10-31T12:05:00,pkn,2.40
2023-10-31T12:07:00,pkn,1.20
2023-10-31T12:08:00,pkn,4.80
2023-10-31T12:10:00,pkn,10.80
2023-10-31T12:12:00,pkn,9.60
2023-10-31T12:14:00,pkn,8.40
2023-10-31T12:16:00,pkn,4.80
2023-10-31T12:18:00,pkn,1.20
2023-10-31T12:19:00,pkn,1.20
2023-10-31T12:21:00,pkn,2.40
2023-10-31T12:23:00,pkn,1.20
2023-10-31T12:24:00,pkn,1.20
2023-10-31T12:26:00,pkn,1.20
2023-10-31T12:27:00,pkn,1.20
2023-10-31T12:29:00,pkn,2.40
2023-10-31T12:31:00,pkn,1.20
2023-10-31T12:32:00,pkn,1.20
2023-10-31T12:34:00,pkn,1.20
2023-10-31T12:36:00,pkn,2.40
2023-10-31T12:37:00,pkn,1.20
2023-10-31T12:39:00,pkn,1.20
2023-10-31T12:41:00,pkn,2.40
2023-10-31T12:44:00,pkn,2.40
2023-10-31T12:46:00,pkn,4.80
2023-10-31T12:48:00,pkn,9.60
2023-10-31T12:49:00,pkn,3.60
2023-10-31T12:50:00,pkn,7.20
2023-10-31T12:52:00,pkn,9.60
2023-10-31T12:53:00,pkn,1.20
2023-10-31T12:55:00,pkn,2.40
2023-10-31T12:56:00,pkn,1.20
2023-10-31T12:58:00,pkn,1.20
2023-10-31T13:00:00,pkn,2.40
2023-10-31T13:02:00,pkn,1.20
2023-10-31T13:04:00,pkn,2.40
2023-10-31T13:06:00,pkn,2.40
2023-10-31T13:08:00,pkn,2.40
2023-10-31T13:10:00,pkn,1.20
2023-10-31T13:11:00,pkn,1.20
2023-10-31T13:13:00,pkn,2.40
2023-10-31T13:14:00,pkn,1.20
2023-10-31T13:16:00,pkn,1.20
2023-10-31T13:18:00,pkn,2.40
2023-10-31T13:20:00,pkn,1.20
2023-10-31T13:22:00,pkn,2.40
2023-10-31T13:24:00,pkn,2.40
2023-10-31T13:26:00,pkn,2.40
2023-10-31T13:28:00,pkn,1.20
2023-10-31T13:29:00,pkn,3.60
2023-10-31T13:31:00,pkn,9.59
2023-10-31T13:33:00,pkn,9.60
2023-10-31T13:35:00,pkn,9.60
2023-10-31T13:37:00,pkn,9.60
2023-10-31T13:39:00,pkn,6.00
2023-10-31T13:40:00,pkn,1.20
2023-10-31T13:42:00,pkn,1.20
2023-10-31T13:44:00,pkn,2.40
2023-10-31T13:46:00,pkn,1.20
2023-10-31T13:48:00,pkn,1.20
2023-10-31T13:49:00,pkn,1.20
2023-10-31T13:51:00,pkn,2.40
2023-10-31T13:52:00,pkn,1.20
2023-10-31T13:54:00,pkn,1.20
2023-10-31T13:55:00,pkn,1.20
2023-10-31T13:57:00,pkn,2.40
2023-10-31T13:59:00,pkn,1.20
2023-10-31T14:00:00,pkn,1.20
2023-10-31T14:02:00,pkn,2.40
2023-10-31T14:04:00,pkn,1.20
2023-10-31T14:05:00,pkn,1.20
2023-10-31T14:07:00,pkn,1.20
2023-10-31T14:09:00,pkn,2.40
2023-10-31T14:10:00,pkn,1.20
2023-10-31T14:12:00,pkn,1.20
2023-10-31T14:13:00,pkn,1.20
2023-10-31T14:15:00,pkn,2.40
2023-10-31T14:18:00,pkn,2.40
2023-10-31T14:19:00,pkn,1.20
2023-10-31T14:21:00,pkn,1.20
2023-10-31T14:22:00,pkn,1.20
2023-10-31T14:24:00,pkn,1.20
2023-10-31T14:25:00,pkn,1.20
2023-10-31T14:27:00,pkn,1.20
2023-10-31T14:29:00,pkn,2.40
2023-10-31T14:31:00,pkn,7.20
2023-10-31T14:32:00,pkn,2.40
2023-10-31T14:33:00,pkn,7.20
2023-10-31T14:34:00,pkn,1.20
2023-10-31T14:35:00,pkn,9.60
2023-10-31T14:36:00,pkn,6.00
2023-10-31T14:38:00,pkn,1.20
2023-10-31T14:39:00,pkn,1.20
2023-10-31T14:41:00,pkn,1.20
2023-10-31T14:42:00,pkn,1.20
2023-10-31T14:44:00,pkn,2.40
2023-10-31T14:45:00,pkn,1.20
2023-10-31T14:47:00,pkn,1.20
2023-10-31T14:48:00,pkn,1.20
2023-10-31T14:50:00,pkn,2.40
2023-10-31T14:53:00,pkn,2.40
2023-10-31T14:55:00,pkn,2.40
2023-10-31T14:57:00,pkn,2.40
2023-10-31T14:59:00,pkn,2.40
2023-10-31T15:01:00,pkn,1.20
2023-10-31T15:03:00,pkn,2.40
2023-10-31T15:04:00,pkn,1.20
2023-10-31T15:06:00,pkn,2.40
2023-10-31T15:07:00,pkn,1.20
2023-10-31T15:09:00,pkn,1.20
2023-10-31T15:11:00,pkn,2.40
2023-10-31T15:13:00,pkn,1.20
2023-10-31T15:15:00,pkn,2.40
2023-10-31T15:16:00,pkn,1.20
2023-10-31T15:18:00,pkn,1.20
2023-10-31T15:19:00,pkn,1.20
2023-10-31T15:20:00,pkn,1.20
2023-10-31T15:22:00,pkn,1.20
2023-10-31T15:24:00,pkn,2.40
2023-10-31T15:25:00,pkn,1.20
2023-10-31T15:27:00,pkn,1.20
2023-10-31T15:28:00,pkn,1.20
2023-10-31T15:30:00,pkn,2.40
2023-10-31T15:32:00,pkn,1.20
2023-10-31T15:33:00,pkn,2.40
2023-10-31T15:35:00,pkn,9.60
2023-10-31T15:36:00,pkn,1.20
2023-10-31T15:37:00,pkn,8.40
2023-10-31T15:38:00,pkn,4.80
2023-10-31T15:40:00,pkn,8.40
2023-10-31T15:41:00,pkn,1.20
2023-10-31T15:43:00,pkn,1.20
2023-10-31T15:45:00,pkn,2.40
2023-10-31T15:47:00,pkn,1.20
2023-10-31T15:49:00,pkn,2.40
2023-10-31T15:51:00,pkn,1.20
2023-10-31T15:53:00,pkn,2.40
2023-10-31T15:55:00,pkn,1.20
2023-10-31T15:56:00,pkn,1.20
2023-10-31T15:57:00,pkn,1.20
2023-10-31T15:59:00,pkn,1.20
2023-10-31T16:00:00,pkn,1.20
2023-10-31T16:02:00,pkn,1.20
2023-10-31T16:04:00,pkn,2.40
2023-10-31T16:07:00,pkn,2.40
2023-10-31T16:09:00,pkn,2.40
2023-10-31T16:10:00,pkn,1.20
2023-10-31T16:12:00,pkn,1.20
2023-10-31T16:13:00,pkn,1.20
2023-10-31T16:14:00,pkn,1.20
2023-10-31T16:16:00,pkn,1.20
2023-10-31T16:17:00,pkn,1.20
2023-10-31T16:19:00,pkn,1.20
2023-10-31T16:20:00,pkn,1.20
2023-10-31T16:22:00,pkn,1.20
2023-10-31T16:24:00,pkn,2.40
2023-10-31T16:26:00,pkn,1.20
2023-10-31T16:28:00,pkn,2.40
2023-10-31T16:29:00,pkn,1.20
2023-10-31T16:31:00,pkn,1.20
2023-10-31T16:32:00,pkn,1.20
2023-10-31T16:34:00,pkn,1.20
2023-10-31T16:36:00,pkn,2.40
2023-10-31T16:38:00,pkn,1.20
2023-10-31T16:40:00,pkn,1.20
2023-10-31T16:42:00,pkn,2.40
2023-10-31T16:44:00,pkn,6.00
2023-10-31T16:46:00,pkn,10.80
2023-10-31T16:48:00,pkn,9.59
2023-10-31T16:49:00,pkn,3.60
2023-10-31T16:50:00,pkn,2.40
2023-10-31T16:51:00,pkn,3.60
2023-10-31T16:52:00,pkn,2.40
2023-10-31T16:55:00,pkn,2.40
2023-10-31T16:57:00,pkn,1.20
2023-10-31T16:58:00,pkn,1.20
2023-10-31T17:00:00,pkn,2.40
2023-10-31T17:01:00,pkn,1.20
2023-10-31T17:03:00,pkn,1.20
2023-10-31T17:04:00,pkn,1.20
2023-10-31T17:06:00,pkn,1.20
2023-10-31T17:08:00,pkn,2.40
2023-10-31T17:09:00,pkn,1.20
2023-10-31T17:11:00,pkn,1.20
2023-10-31T17:12:00,pkn,1.20
2023-10-31T17:14:00,pkn,2.40
2023-10-31T17:16:00,pkn,1.20
2023-10-31T17:17:00,pkn,1.20
2023-10-31T17:19:00,pkn,1.20
2023-10-31T17:20:00,pkn,1.20
2023-10-31T17:22:00,pkn,2.40
2023-10-31T17:24:00,pkn,1.20
2023-10-31T17:27:00,pkn,3.60
2023-10-31T17:29:00,pkn,3.60
2023-10-31T17:32:00,pkn,2.40
2023-10-31T17:34:00,pkn,1.20
2023-10-31T17:36:00,pkn,2.40
2023-10-31T17:37:00,pkn,1.20
2023-10-31T17:39:00,pkn,1.20
2023-10-31T17:41:00,pkn,1.20
2023-10-31T17:43:00,pkn,2.40
2023-10-31T17:44:00,pkn,1.20
2023-10-31T17:46:00,pkn,1.20
2023-10-31T17:48:00,pkn,1.20
2023-10-31T17:50:00,pkn,2.40
2023-10-31T17:53:00,pkn,2.40
2023-10-31T17:54:00,pkn,1.20
2023-10-31T17:55:00,pkn,1.20
2023-10-31T17:57:00,pkn,1.20
2023-10-31T17:58:00,pkn,1.20
2023-10-31T18:00:00,pkn,1.20
2023-10-31T18:01:00,pkn,1.20
2023-10-31T18:03:00,pkn,1.20
2023-10-31T18:04:00,pkn,1.20
2023-10-31T18:06:00,pkn,1.20
2023-10-31T18:08:00,pkn,2.40
2023-10-31T18:11:00,pkn,2.40
2023-10-31T18:14:00,pkn,2.40
2023-10-31T18:17:00,pkn,2.40
2023-10-31T18:18:00,pkn,1.20
2023-10-31T18:20:00,pkn,7.20
2023-10-31T18:22:00,pkn,9.60
2023-10-31T18:23:00,pkn,1.20
2023-10-31T18:24:00,pkn,8.40
2023-10-31T18:25:00,pkn,6.00
2023-10-31T18:27:00,pkn,2.40
2023-10-31T18:29:00,pkn,2.40
2023-10-31T18:31:00,pkn,1.20
2023-10-31T18:33:00,pkn,2.40
2023-10-31T18:35:00,pkn,1.20
2023-10-31T18:36:00,pkn,1.20
2023-10-31T18:38:00,pkn,2.40
2023-10-31T18:40:00,pkn,1.20
2023-10-31T18:42:00,pkn,2.40
2023-10-31T18:44:00,pkn,2.40
2023-10-31T18:46:00,pkn,2.40
2023-10-31T18:49:00,pkn,2.40
2023-10-31T18:51:00,pkn,1.20
2023-10-31T18:52:00,pkn,1.20
2023-10-31T18:54:00,pkn,1.20
2023-10-31T18:56:00,pkn,2.40
2023-10-31T18:58:00,pkn,1.20
2023-10-31T19:00:00,pkn,2.40
2023-10-31T19:02:00,pkn,1.20
2023-10-31T19:04:00,pkn,2.40
2023-10-31T19:06:00,pkn,1.20
2023-10-31T19:08:00,pkn,2.40
2023-10-31T19:10:00,pkn,1.20
2023-10-31T19:12:00,pkn,1.20
2023-10-31T19:14:00,pkn,1.20
2023-10-31T19:16:00,pkn,2.40
2023-10-31T19:18:00,pkn,1.20
2023-10-31T19:20:00,pkn,1.20
2023-10-31T19:21:00,pkn,1.20
2023-10-31T19:23:00,pkn,1.20
2023-10-31T19:25:00,pkn,2.40
2023-10-31T19:27:00,pkn,1.20
2023-10-31T19:28:00,pkn,1.20
2023-10-31T19:30:00,pkn,1.20
2023-10-31T19:32:00,pkn,1.20
2023-10-31T19:33:00,pkn,1.20
2023-10-31T19:35:00,pkn,1.20
2023-10-31T19:36:00,pkn,1.20
2023-10-31T19:37:00,pkn,3.60
2023-10-31T19:38:00,pkn,2.40
2023-10-31T19:39:00,pkn,7.20
2023-10-31T19:41:00,pkn,10.80
2023-10-31T19:42:00,pkn,4.80
2023-10-31T19:44:00,pkn,9.60
2023-10-31T19:46:00,pkn,9.60
2023-10-31T19:48:00,pkn,3.60
2023-10-31T19:50:00,pkn,2.40
2023-10-31T19:52:00,pkn,1.20
2023-10-31T19:54:00,pkn,2.40
2023-10-31T19:56:00,pkn,1.20
2023-10-31T19:58:00,pkn,2.40
2023-10-31T20:00:00,pkn,2.40
2023-10-31T20:02:00,pkn,1.20
2023-10-31T20:03:00,pkn,1.20
2023-10-31T20:05:00,pkn,2.40
2023-10-31T20:06:00,pkn,1.20
2023-10-31T20:08:00,pkn,1.20
2023-10-31T20:10:00,pkn,2.40
2023-10-31T20:11:00,pkn,1.20
2023-10-31T20:13:00,pkn,2.40
2023-10-31T20:15:00,pkn,9.60
2023-10-31T20:16:00,pkn,6.00
2023-10-31T20:18:00,pkn,9.60
2023-10-31T20:20:00,pkn,10.80
2023-10-31T20:22:00,pkn,1.20
2023-10-31T20:24:00,pkn,2.40
2023-10-31T20:26:00,pkn,2.40
2023-10-31T20:28:00,pkn,1.20
2023-10-31T20:30:00,pkn,2.40
2023-10-31T20:32:00,pkn,2.40
2023-10-31T20:34:00,pkn,2.40
2023-10-31T20:36:00,pkn,2.40
2023-10-31T20:39:00,pkn,2.40
2023-10-31T20:41:00,pkn,2.40
2023-10-31T20:43:00,pkn,2.40
2023-10-31T20:45:00,pkn,1.20
2023-10-31T20:47:00,pkn,2.40
2023-10-31T20:49:00,pkn,3.60
2023-10-31T20:51:00,pkn,2.40
2023-10-31T20:52:00,pkn,1.20
2023-10-31T20:54:00,pkn,2.40
2023-10-31T20:56:00,pkn,2.40
2023-10-31T20:58:00,pkn,2.40
2023-10-31T21:00:00,pkn,10.80
2023-10-31T21:02:00,pkn,9.59
2023-10-31T21:04:00,pkn,10.80
2023-10-31T21:05:00,pkn,4.80
2023-10-31T21:07:00,pkn,2.40
2023-10-31T21:09:00,pkn,2.40
2023-10-31T21:10:00,pkn,1.20
2023-10-31T21:12:00,pkn,2.40
2023-10-31T21:14:00,pkn,2.40
2023-10-31T21:16:00,pkn,1.20
2023-10-31T21:18:00,pkn,2.40
2023-10-31T21:19:00,pkn,1.20
2023-10-31T21:21:00,pkn,1.20
2023-10-31T21:22:00,pkn,1.20
2023-10-31T21:23:00,pkn,1.20
2023-10-31T21:24:00,pkn,1.20
2023-10-31T21:26:00,pkn,1.20
2023-10-31T21:29:00,pkn,2.40
2023-10-31T21:30:00,pkn,1.20
2023-10-31T21:32:00,pkn,1.20
2023-10-31T21:34:00,pkn,1.20
2023-10-31T21:35:00,pkn,1.20
2023-10-31T21:36:00,pkn,1.20
2023-10-31T21:38:00,pkn,1.20
2023-10-31T21:39:00,pkn,1.20
2023-10-31T21:41:00,pkn,2.40
2023-10-31T21:44:00,pkn,8.40
2023-10-31T21:46:00,pkn,10.80
2023-10-31T21:47:00,pkn,6.00
2023-10-31T21:49:00,pkn,8.40
2023-10-31T21:50:00,pkn,3.60
2023-10-31T21:52:00,pkn,1.20
2023-10-31T21:53:00,pkn,1.20
2023-10-31T21:55:00,pkn,2.40
2023-10-31T21:56:00,pkn,1.20
2023-10-31T21:58:00,pkn,2.40
2023-10-31T22:01:00,pkn,2.40
2023-10-31T22:03:00,pkn,2.40
2023-10-31T22:05:00,pkn,1.20
2023-10-31T22:06:00,pkn,1.20
2023-10-31T22:07:00,pkn,1.20
2023-10-31T22:09:00,pkn,2.40
2023-10-31T22:11:00,pkn,1.20
2023-10-31T22:12:00,pkn,1.20
2023-10-31T22:14:00,pkn,1.20
2023-10-31T22:15:00,pkn,1.20
2023-10-31T22:17:00,pkn,1.20
2023-10-31T22:19:00,pkn,2.40
2023-10-31T22:20:00,pkn,1.20
2023-10-31T22:22:00,pkn,2.40
2023-10-31T22:24:00,pkn,1.20
2023-10-31T22:25:00,pkn,1.20
2023-10-31T22:26:00,pkn,1.20
2023-10-31T22:28:00,pkn,2.40
2023-10-31T22:29:00,pkn,1.20
2023-10-31T22:31:00,pkn,1.20
2023-10-31T22:33:00,pkn,8.40
2023-10-31T22:34:00,pkn,3.60
2023-10-31T22:36:00,pkn,9.60
2023-10-31T22:38:00,pkn,10.80
2023-10-31T22:40:00,pkn,2.40
2023-10-31T22:41:00,pkn,1.20
2023-10-31T22:42:00,pkn,1.20
2023-10-31T22:44:00,pkn,1.20
2023-10-31T22:45:00,pkn,1.20
2023-10-31T22:47:00,pkn,1.20
2023-10-31T22:48:00,pkn,1.20
2023-10-31T22:50:00,pkn,1.20
2023-10-31T22:52:00,pkn,2.40
2023-10-31T22:54:00,pkn,1.20
2023-10-31T22:55:00,pkn,1.20
2023-10-31T22:57:00,pkn,1.20
2023-10-31T22:58:00,pkn,1.20
2023-10-31T23:00:00,pkn,1.20
2023-10-31T23:01:00,pkn,2.40
2023-10-31T23:02:00,pkn,2.40
2023-10-31T23:03:00,pkn,8.40
2023-10-31T23:05:00,pkn,10.80
2023-10-31T23:07:00,pkn,10.80
2023-10-31T23:09:00,pkn,9.60
2023-10-31T23:10:00,pkn,4.80
2023-10-31T23:12:00,pkn,10.80
2023-10-31T23:14:00,pkn,7.20
2023-10-31T23:16:00,pkn,1.20
2023-10-31T23:18:00,pkn,2.40
2023-10-31T23:19:00,pkn,1.20
2023-10-31T23:21:00,pkn,1.20
2023-10-31T23:22:00,pkn,1.20
2023-10-31T23:24:00,pkn,1.20
2023-10-31T23:26:00,pkn,2.40
2023-10-31T23:28:00,pkn,2.40
2023-10-31T23:31:00,pkn,2.40
2023-10-31T23:32:00,pkn,1.20
2023-10-31T23:34:00,pkn,1.20
2023-10-31T23:36:00,pkn,1.20
2023-10-31T23:37:00,pkn,1.20
2023-10-31T23:39:00,pkn,6.00
2023-10-31T23:41:00,pkn,9.59
2023-10-31T23:43:00,pkn,10.80
2023-10-31T23:44:00,pkn,4.80
2023-10-31T23:46:00,pkn,9.60
2023-10-31T23:48:00,pkn,2.40
2023-10-31T23:50:00,pkn,2.40
2023-10-31T23:52:00,pkn,1.20
2023-10-31T23:53:00,pkn,1.20
2023-10-31T23:55:00,pkn,2.40
2023-10-31T23:56:00,pkn,1.20
2023-10-31T23:58:00,pkn,1.20
2023-10-31T23:59:00,pkn,1.20
